Regional Weather Roundup
Issued by NWS Midland/Odessa, TX

Skip options and go directly to product.
Home | Oldest Version | Next Version | Current Version | All | Text Only | Save Text | Print | Product List | Glossary On

Skip product version selection by date and time.   
059
ASUS44 KMAF 010102
RWRMAF
MIDLAND AREA WEATHER ROUNDUP
NATIONAL WEATHER SERVICE MIDLAND TX
800 PM CDT SUN AUG 31 2014

...IN SOUTHWEST TEXAS AND SOUTHEAST NEW MEXICO...

CITY           SKY/WX    TMP DP  RH WIND       PRES   REMARKS
ALPINE         PTCLDY    90  50  25 S10       30.05R
ANDREWS        FAIR      94  51  23 S12G18    29.88S
ARTESIA        NOT AVBL
BIG SPRING     CLEAR     94  56  28 SE16      29.89S
CARLSBAD       PTCLDY    99  45  15 W14       29.84S
DRYDEN           N/A     96  62  32 SE18G25   29.87R
FORT STOCKTON  CLEAR     93  55  27 SE15G24   29.89R
GUAD PASS      CLEAR     88  39  17 SW23      30.07S
HOBBS          CLEAR     93  45  18 S15       29.90S
MARFA          PTCLDY    88  48  25 SW8       30.06S
MIDLAND AIRPK  NOT AVBL
MIDLAND INTL   CLEAR     95  55  26 S20       29.87S
ODESSA         CLEAR     95  53  24 S16G24    29.88S
PECOS          CLEAR    100  48  17 SE10      29.81F
PRESIDIO       FAIR      99  45  15 CALM      29.85S
SEMINOLE       CLEAR     95  47  19 S12       29.89S
SNYDER         CLEAR     93  60  32 S14G22    29.88R
WINK           CLEAR     98  53  22 SE17G23   29.82F
$$
...OTHER STATIONS IN TEXAS...

CITY           SKY/WX    TMP DP  RH WIND       PRES   REMARKS
ABILENE        CLEAR     93  62  35 S13       29.86F
AMARILLO       CLEAR     94  41  16 S15G24    29.81F
AUSTIN         PTCLDY    88  70  55 SE17      29.89S
BROWNSVILLE    CLEAR     84  78  82 E9        29.90R
CORPUS CHRISTI MOCLDY    84  76  76 SE13      29.90S
DALLAS FTW     PTCLDY    91  67  44 S13       29.85F
DEL RIO        CLEAR     96  65  35 SE9       29.81F
EL PASO        PTCLDY    96  40  14 SW8       29.91F
HOUSTON INT    MOCLDY    79  75  89 SE7       29.95S
LUBBOCK        PTCLDY    92  55  28 S17       29.86S
SAN ANGELO     CLEAR     92  64  39 SE15      29.87S
SAN ANTONIO    PTCLDY    89  70  53 SE18      29.90R
WACO           CLEAR     88  69  53 SE15G25   29.88R
WICHITA FALLS  NOT AVBL
$$
...OTHER LOCATIONS IN NEW MEXICO...

CITY           SKY/WX    TMP DP  RH WIND       PRES   REMARKS
ALAMAGORDO     CLEAR     93  39  15 SW7       29.92S
ALBUQUERQUE    PTCLDY    89  36  15 W15G25    29.98S
CANNON AFB     CLEAR     92  42  17 W12       29.89S
CLOVIS           N/A     91  41  17 W16       29.91S
HOLLOMAN AFB   CLEAR     95  38  14 SW13      29.90S
ROSWELL        CLEAR     97  42  15 W10       29.85F
RUIDOSO        CLEAR     79  41  25 SW8       30.16F
SANTA FE       CLEAR     84  31  14 W16G22    30.04S
TRUTH OR CONSE FAIR      92  34  13 SW15      29.95F
TUCUMCARI      CLEAR     94  33  11 SW18G28   29.83S
$$

USA.gov is the U.S. government's official web portal to all federal, state and local government web resources and services.